Flag for Iceland Weather past 2 weeks in Reykjavik, Iceland

Now
55 °F

Rain. Mostly cloudy.


Feels Like: 50 °F
Forecast: 48 / 54 °F
Wind: 22 mph from South

Location: Reykjavik Airport

Current Time: Sep 15, 2014 at 4:34:40 AM

Latest Report: Sep 15, 2014 at 4:00 AM


Visibility: 5 mi

Pressure: 29.80 "Hg

Humidity: 82%

Dew point: 50 °F

Location of ReykjavikLocation

Historic Weather in Reykjavik — Graph

°F

Reykjavik temperature yesterday

Maximum temperature yesterday: 57 °F (at 3:00 PM)
Minimum temperature yesterday: 50 °F (at 12:00 AM)
Average temperature yesterday: 54 °F

Past Weeks' High & Low Weather Summary

 TemperatureHumidityPressure
High57 °F (Aug 31, 1:00 PM)94% (Sep 1, 8:00 AM)30.21 "Hg (Sep 1, 8:00 AM)
Low41 °F (Sep 5, 4:00 AM)62% (Sep 12, 11:00 AM)28.82 "Hg (Aug 31, 8:00 PM)
Average51 °F81%29.75 "Hg
* Reported Aug 31 3:00 AM — Sep 15 3:00 AM, Reykjavik, Weather by CustomWeather, © 2014

Note: Actual official high and low records may vary slightly from our data, if they occured in-between our weather recording intervals... More about our weather records

Advertising

Reykjavik weather history for previous 24 hours

 ConditionsComfort  
Time TempWeatherWind HumidityBarometerVisibility
3:00 AM
Sep 15
55 °FRain. Fog.26 mph82%29.80 "Hg5 mi
2:00 AM55 °FLight rain. Mostly cloudy.35 mph82%29.80 "HgN/A
1:00 AM55 °FLight rain. Fog.31 mph82%29.83 "Hg4 mi
12:00 AM55 °FDrizzle. Fog.32 mph82%29.86 "Hg4 mi
11:00 PM
Sep 14
55 °FRain. Mostly cloudy.25 mph82%29.86 "Hg5 mi
10:00 PM55 °FLight rain. Partly cloudy.28 mph88%29.89 "Hg5 mi
9:00 PM55 °FLight rain. Partly cloudy.30 mph82%29.92 "HgN/A
8:00 PM54 °FOvercast.30 mph88%29.92 "Hg3 mi
7:00 PM55 °FFog.30 mph88%29.92 "Hg3 mi
6:00 PM55 °FFog.29 mph88%29.95 "Hg4 mi
5:00 PM55 °FScattered showers. Mostly cloudy.30 mph88%29.95 "Hg4 mi
4:00 PM55 °FMostly cloudy.28 mph88%29.98 "HgN/A
3:00 PM57 °FScattered showers. Broken clouds.25 mph82%29.98 "HgN/A
2:00 PM55 °FScattered showers. Mostly cloudy.23 mph88%29.98 "Hg6 mi
1:00 PM55 °FScattered showers. Mostly cloudy.26 mph82%29.98 "HgN/A
12:00 PM55 °FSprinkles. Mostly cloudy.24 mph82%30.01 "HgN/A
11:00 AM55 °FMore clouds than sun.26 mph82%30.01 "HgN/A
10:00 AM55 °FBroken clouds.25 mph82%30.01 "HgN/A
9:00 AM55 °FSprinkles. Broken clouds.26 mph82%30.01 "HgN/A
8:00 AM55 °FBroken clouds.26 mph77%30.01 "HgN/A
7:00 AM54 °FLight rain. Partly sunny.23 mph82%30.04 "HgN/A
6:00 AM52 °FSprinkles. Partly cloudy.26 mph82%30.04 "HgN/A
5:00 AM50 °FPartly cloudy.25 mph82%30.04 "HgN/A
4:00 AM50 °FPassing clouds.25 mph76%30.07 "HgN/A
Weather by CustomWeather, © 2014

See weather overviewHow to use our weather pages